sat.trackr.live / text

‹ back to catalog

STARLINK-32444

NORAD 62073 · 2024-217S

PAYLOAD ACTIVE UNKNOWN

§ Identity

Operator
Country
US
Launch date
2024-11-24
Launch site
AFWTR
Launch vehicle
Mass (kg)
RCS (m²)

Purposes: comms

External: N2YO · Heavens-Above · Gunter

§ Orbital elements

Epoch: 2026-09-21T13:41:22.285248Z

Period
93.85 min
Inclination
53.1605°
Eccentricity
0.0001367
Mean motion
15.34397392 rev/d
Perigee alt
461.8 km
Apogee alt
463.6 km
Semi-major
6,840.8 km
B*
4.6026e-4
RAAN
0.3777°
Arg perigee
79.2447°
Mean anomaly
280.8710°
Rev number
10,346

§ Raw data

STARLINK-324441 62073U 24217S   26264.57039682  .00015205  00000+0  46026-3 0  99972 62073  53.1605   0.3777 0001367  79.2447 280.8710 15.34397392103460

JSON: /api/v1/satellites/62073 · /tle

For live sub-satellite position, see the globe view (requires WebGL).

§ Visibility from observer

Set your observer location to see the next 7 days of passes ≥ 10°. The values pass through the URL so the page stays shareable.

No JS? Fill the form by hand. The geolocation button needs JavaScript.